Munising, MI

5:00 PM EST on February 07, 2016 (GMT -0500)
Munising

Weather History for KP53 - August, 2013

Change the Weather History Date:

Tuesday, August 13, 2013

  Actual Average (KISQ) Record (KISQ)
Temperature  
Mean Temperature 58 °F -  
Max Temperature 61 °F 74 °F 88 °F (1955)
Min Temperature 55 °F 56 °F 40 °F (1967)
Degree Days  
Heating Degree Days 8    
Growing Degree Days 8 (Base 50)    
Moisture  
Dew Point 49 °F    
Average Humidity 71    
Maximum Humidity 83    
Minimum Humidity 62    
Precipitation  
Precipitation 0.00 in - - ()
Sea Level Pressure  
Sea Level Pressure 30.10 in    
Wind  
Wind Speed 13 mph (North)    
Max Wind Speed 21 mph    
Max Gust Speed 30 mph    
Averages and records for this station are not official NWS values.
T = Trace of Precipitation, MM = Missing Value Source: NWS Daily Summary

Daily Weather History Graph

Daily Weather History Graph

Search for Another Location

Airport or City:

Trip Planner

Search our weather history database for the weather conditions in past years. The results will help you decide how hot, cold, wet, or windy it might be!

Date:

Astronomy

Aug. 13, 2013 Rise Set
Actual Time 6:43 AM EDT 8:58 PM EDT
Civil Twilight 6:09 AM EDT 9:31 PM EDT
Nautical Twilight 5:28 AM EDT 10:13 PM EDT
Astronomical Twilight 4:41 AM EDT 10:59 PM EDT
Moon 2:05 PM EDT (8/13) No Moon Set
Length of Visible Light 15h 22m
Length of Day
14h 15m
Waxing Crescent, 41% of the Moon is Illuminated
Aug 13
Waxing Crescent
Aug 14
First Quarter
Aug 20
Full
Aug 28
Last Quarter
Sep 5
New

Hourly Weather History & Observations

Time (EDT) Temp. Dew Point Humidity Pressure Visibility Wind Dir Wind Speed Gust Speed Precip Events Conditions
12:56 AM 55.9 °F 48.9 °F 77% 30.02 in - North 12.7 mph - N/A   Unknown
1:56 AM 55.9 °F 48.9 °F 77% 30.02 in - NNW 10.4 mph - N/A   Unknown
2:56 AM 55.9 °F 48.9 °F 77% 30.03 in - North 11.5 mph - N/A   Unknown
3:56 AM 57.0 °F 48.9 °F 74% 30.03 in - North 11.5 mph - N/A   Unknown
4:56 AM 57.0 °F 48.9 °F 74% 30.03 in - NNW 8.1 mph - N/A   Unknown
5:56 AM 57.9 °F 51.1 °F 78% 30.04 in - North 13.8 mph - N/A   Unknown
6:56 AM 57.0 °F 52.0 °F 83% 30.05 in - North 11.5 mph - N/A   Unknown
7:56 AM 57.0 °F 48.9 °F 74% 30.05 in - North 10.4 mph - N/A   Unknown
8:56 AM 59.0 °F 48.0 °F 67% 30.06 in - North 18.4 mph - N/A   Unknown
9:56 AM 57.9 °F 48.0 °F 70% 30.08 in - NNE 17.3 mph - N/A   Unknown
10:56 AM 59.0 °F 46.9 °F 64% 30.10 in - NNE 19.6 mph - N/A   Unknown
11:56 AM 60.1 °F 48.9 °F 67% 30.11 in - NNE 17.3 mph - N/A   Unknown
12:56 PM 60.1 °F 46.9 °F 62% 30.11 in - North 16.1 mph 25.3 mph N/A   Unknown
1:56 PM 59.0 °F 46.9 °F 64% 30.13 in - North 19.6 mph - N/A   Unknown
2:56 PM 59.0 °F 48.0 °F 67% 30.14 in - NNW 16.1 mph 24.2 mph N/A   Unknown
3:56 PM 59.0 °F 50.0 °F 72% 30.13 in - NNW 20.7 mph 27.6 mph N/A   Unknown
4:56 PM 60.1 °F 48.9 °F 67% 30.14 in - NNW 18.4 mph 29.9 mph N/A   Unknown
5:56 PM 60.1 °F 48.9 °F 67% 30.14 in - NNW 19.6 mph 25.3 mph N/A   Unknown
6:56 PM 59.0 °F 50.0 °F 72% 30.14 in - North 12.7 mph 21.9 mph N/A   Unknown
7:56 PM 59.0 °F 48.0 °F 67% 30.15 in - NNW 15.0 mph 23.0 mph N/A   Unknown
8:56 PM 59.0 °F 48.9 °F 69% 30.14 in - NNW 13.8 mph - N/A   Unknown
9:56 PM 57.9 °F 48.0 °F 70% 30.14 in - NNW 9.2 mph 18.4 mph N/A   Unknown
10:56 PM 57.9 °F 48.0 °F 70% 30.15 in - North 10.4 mph - N/A   Unknown
11:56 PM 57.0 °F 48.0 °F 72% 30.15 in - NW 5.8 mph - N/A   Unknown